This is the latest recevied weather packets stored in our database for station/object VK5GR-12. If no packets are shown the sender has not sent any weather packets the latest 10 day(s).
| Time | Temp. | Humidity | Pressure | Rain* | Wind** | Luminosity | Snow |
|---|---|---|---|---|---|---|---|
| 1777423830 | 27.22° C | 36% | 1025.3 hPa | 0 mm | - | 390 W/m² | - |
| 1777422926 | 25.56° C | 40% | 1025.3 hPa | 0 mm | - | 369 W/m² | - |
| 1777422024 | 24.44° C | 43% | 1025.4 hPa | 0 mm | - | 151 W/m² | - |
| 1777421123 | 23.33° C | 46% | 1025.6 hPa | 0 mm | - | 302 W/m² | - |
| 1777420218 | 21.67° C | 49% | 1025.4 hPa | 0 mm | - | 246 W/m² | - |
| 1777419316 | 20° C | 54% | 1025.4 hPa | 0 mm | - | 51 W/m² | - |
| 1777418410 | 18.89° C | 58% | 1025.6 hPa | 0 mm | - | 84 W/m² | - |
| 1777417509 | 18.33° C | 60% | 1025.6 hPa | 0 mm | - | 48 W/m² | - |
| 1777416609 | 17.22° C | 63% | 1025.3 hPa | 0 mm | - | 36 W/m² | - |
| 1777415706 | 16.67° C | 65% | 1025.3 hPa | 0 mm | - | 39 W/m² | - |
| 1777414802 | 16.67° C | 66% | 1024.9 hPa | 0 mm | - | 29 W/m² | - |
| 1777413898 | 16.11° C | 67% | 1024.8 hPa | 0 mm | - | 24 W/m² | - |
| 1777412998 | 16.67° C | 66% | 1024.7 hPa | 0 mm | - | 20 W/m² | - |
| 1777412095 | 16.67° C | 66% | 1024.5 hPa | 0 mm | - | 11 W/m² | - |
| 1777411195 | 16.67° C | 66% | 1024.7 hPa | 0 mm | - | 3 W/m² | - |
| 1777410290 | 16.67° C | 65% | 1024.1 hPa | 0 mm | - | 0 W/m² | - |
| 1777409388 | 17.22° C | 65% | 1024 hPa | 0 mm | - | 0 W/m² | - |
| 1777408489 | 16.67° C | 66% | 1024.1 hPa | 0 mm | - | 0 W/m² | - |
| 1777407589 | 16.67° C | 65% | 1023.9 hPa | 0 mm | - | 0 W/m² | - |
| 1777406689 | 16.67° C | 65% | 1023.9 hPa | 0 mm | - | 0 W/m² | - |
| 1777405787 | 17.22° C | 64% | 1023.8 hPa | 0 mm | - | 0 W/m² | - |
| 1777404884 | 17.22° C | 64% | 1023.9 hPa | 0 mm | - | 0 W/m² | - |
| 1777403979 | 17.22° C | 63% | 1023.8 hPa | 0 mm | - | 0 W/m² | - |
| 1777403079 | 17.22° C | 63% | 1023.7 hPa | 0 mm | - | 0 W/m² | - |
| 1777402175 | 17.78° C | 62% | 1023.7 hPa | 0 mm | - | 0 W/m² | - |
* Rain latest hour (hover to see other rain measurements)
** Current wind speed in m/s (hover to see current wind gust speed)